Home   Weather   Versoix   Past weeks

Flag for Switzerland Past Weather in Versoix, Geneva, Switzerland — Yesterday and Last 2 Weeks

Now
62 °F

Cool.


Feels Like: 62 °F
Forecast: 59 / 67 °F
Wind: 6 mph from Southwest

Location: Geneve-Cointrin

Current Time: Jul 23, 2017 at 7:03:13 am

Latest Report: Jul 23, 2017 at 5:00 am


Visibility: N/A

Pressure: 30.07 "Hg

Humidity: 96%

Dew Point: 60 °F

Location of VersoixLocation

Past Weather in Versoix — Graph

°F

Versoix Temperature Yesterday

Maximum temperature yesterday: 81 °F (at 1:00 pm)
Minimum temperature yesterday: 58 °F (at 6:00 am)
Average temperature yesterday: 68 °F

High & Low Weather Summary for the Past Weeks

 TemperatureHumidityPressure
High93 °F (Jul 8, 4:00 pm)100% (Jul 22, 2:00 am)30.25 "Hg (Jul 22, 2:00 am)
Low54 °F (Jul 15, 6:00 am)29% (Jul 18, 6:00 pm)29.82 "Hg (Jul 10, 5:00 pm)
Average72 °F63%30.00 "Hg
* Reported Jul 8 4:00 am — Jul 23 4:00 am, Versoix. Weather by CustomWeather, © 2017

Note: Actual official high and low records may vary slightly from our data, if they occured in-between our weather recording intervals... More about our weather records

Advertising

Versoix Weather History for the Previous 24 Hours

Scroll right to see more
 ConditionsComfort  
Time TempWeatherWind HumidityBarometerVisibility
4:00 am
Sun, Jul 23
63 °FMild.6 mph94%30.07 "HgN/A
3:00 am63 °FMild.7 mph95%30.06 "HgN/A
2:00 am63 °FMild.5 mph92%30.06 "HgN/A
1:00 am65 °FMild.8 mph88%30.05 "HgN/A
12:00 am64 °FMild.6 mph94%30.05 "HgN/A
11:00 pm
Sat, Jul 22
69 °FOvercast.7 mph79%30.00 "Hg19 mi
10:00 pm69 °FMild.5 mph87%30.00 "HgN/A
9:00 pm69 °FMild.2 mph93%29.96 "HgN/A
8:00 pm73 °FThundershowers. Overcast.3 mph74%29.92 "Hg17 mi
7:00 pm74 °FMild.3 mph70%29.90 "HgN/A
6:00 pm77 °FMild.6 mph68%29.88 "HgN/A
5:00 pm80 °FSprinkles. Overcast.5 mph50%29.87 "Hg19 mi
4:00 pm80 °FWarm.8 mph48%29.90 "HgN/A
2:00 pm80 °FOvercast.8 mph52%29.91 "Hg19 mi
1:00 pm81 °FWarm.7 mph53%29.91 "HgN/A
12:00 pm73 °FMild.2 mph67%29.95 "HgN/A
11:00 am72 °FPassing clouds.3 mph69%29.96 "Hg16 mi
10:00 am67 °FMild.2 mph80%29.98 "HgN/A
9:00 am65 °FMild.1 mph86%29.99 "HgN/A
8:00 am62 °FPartly sunny.1 mph94%29.99 "Hg12 mi
7:00 am60 °FCool.1 mph98%29.98 "HgN/A
Weather by CustomWeather, © 2017

See weather overviewHow to use our weather pages